User: anonymous   Login
Location: Unspecified
(0.0000°N, 0.0000°E)
Time: 00:07:52
(UTC+00:00)
Language:

Orsted - Orbit

View from above orbital plane
View from above orbital plane
View from above satellite
View from above satellite

Ground track
Ground track

The orbit data is extracted from the following two-line orbital elements,

1 25635U 99008B   18112.49403740 +.00000094 +00000-0 +30213-4 0  9997
2 25635 096.4480 310.7086 0138323 341.7600 017.8664 14.48068353010724
Epoch (UTC): 22 April 2018 11:51:24
Eccentricity: 0.0138323
inclination: 96.4480°
perigee height: 633 km
apogee height: 830 km
right ascension of ascending node: 310.7086°
argument of perigee: 341.7600°
revolutions per day: 14.48068353
mean anomaly at epoch: 17.8664°
orbit number at epoch: 1072

The dashed part of the orbit path shows where the satellite is in the earth's shadow,  

DLR